CAPE
0 0 0 0 0 0 0 0 0 0 0 0 0 0 0 0 0 0 65 1187 1087 1404 1444 1338 1157 1400 1366 1615 1717 1865 2024 2349 2287 2217 2173 2154 2120 2039 1963 2033 1911 1929 1926 1914 1576 1838 1673 1402 1361
0 0 0 0 0 0 0 0 0 0 0 0 0 0 0 0 82 268 582 1316 1135 1355 1337 1376 1262 1407 1570 1700 1865 1594 1877 2357 2407 2327 2307 2238 2137 2056 2120 2016 1868 1870 2023 2081 1616 1551 1288 1321 1143
0 0 0 0 0 0 0 0 0 0 0 0 0 0 0 0 664 553 746 1482 1375 1277 1186 1349 1061 1321 1426 1766 1894 1771 1669 1954 2293 1985 1960 1632 1641 1624 1509 1484 1723 1891 1962 2097 1923 1544 1484 1238 840
0 0 0 0 0 0 0 0 0 0 0 0 0 0 0 6 803 842 1028 1505 1507 1182 1231 1098 1057 1220 1454 1716 1909 1983 1638 1718 1974 1934 1823 1913 1636 1424 1227 1177 1050 1394 1887 1939 1761 1635 1250 897 724
0 0 0 0 0 0 0 0 0 0 0 0 0 0 0 114 474 996 1495 1479 1558 1201 1171 1390 1174 1241 1459 1651 1791 1877 1736 1706 1771 1856 1954 1892 1760 1504 1205 926 710 895 1149 1569 1567 1355 947 632 428
0 0 0 0 0 0 0 0 0 0 0 0 0 0 0 228 925 1317 1639 1637 1612 1639 1334 1881 1325 1245 1359 1527 1555 1579 1378 1327 1256 1403 1427 1407 1212 1055 913 777 653 579 866 1152 1269 960 689 421 285
0 0 0 0 0 0 0 0 0 0 0 0 0 0 0 470 932 1427 1704 1597 1506 1411 1478 1856 1909 1560 1342 1327 1185 1249 1027 1006 1077 920 1062 913 703 628 600 630 797 786 672 890 915 655 426 313 219
0 0 0 0 0 0 0 0 0 0 0 0 0 0 0 62 817 1159 1330 1490 1357 1187 1060 1740 1582 1758 1804 1535 1097 1005 825 792 742 740 511 348 285 206 307 248 599 597 473 732 705 379 305 255 205
0 0 0 0 0 0 0 0 0 0 0 0 0 0 0 227 773 990 842 1131 1152 1128 1112 1523 1553 1655 1543 1238 1117 1054 761 741 559 483 384 206 158 154 154 110 168 478 294 495 424 294 253 226 174
0 0 0 0 0 0 0 0 0 0 0 0 0 0 124 553 924 1123 867 1034 1002 1091 1115 1613 1451 1170 1249 977 1047 884 1255 1012 887 608 575 555 412 342 205 331 210 288 138 214 237 228 235 157 100
0 0 0 0 0 0 0 0 0 0 0 0 0 0 15 489 807 1003 983 954 826 871 892 1440 1569 1008 1129 677 841 798 1169 1273 1097 792 426 605 709 479 326 596 764 442 169 117 166 145 140 91 23
0 0 0 0 0 0 0 0 0 0 0 0 0 0 0 0 398 876 893 904 720 680 931 952 1331 1043 463 539 470 482 466 998 927 802 478 569 406 338 337 239 482 462 167 98 94 202 99 17 4
0 0 0 0 0 0 0 0 0 0 0 0 0 0 0 0 0 399 811 782 544 613 727 747 1078 1029 516 536 179 186 354 360 533 357 224 366 123 356 361 205 385 133 73 29 69 108 33 1 0
0 0 0 0 0 0 0 0 0 0 0 0 0 0 0 0 0 75 564 704 451 434 441 555 735 416 682 395 522 134 222 452 534 176 110 207 172 366 462 270 241 222 72 55 91 78 10 0 0
0 0 0 0 0 0 0 0 0 0 0 0 0 0 0 0 0 27 257 658 530 379 273 273 229 471 627 983 528 227 170 134 19 59 95 34 176 271 368 137 113 126 19 50 68 78 54 43 0
0 0 0 0 0 0 0 0 0 0 0 0 0 0 0 0 0 0 54 258 379 351 323 244 94 549 524 787 645 290 305 10 47 8 34 104 57 66 68 90 40 23 16 14 46 98 103 62 0
0 0 0 0 0 0 0 0 0 0 0 0 0 0 0 0 0 0 0 6 36 251 316 379 153 288 258 454 434 733 253 74 29 25 76 68 50 42 60 79 42 48 17 30 31 103 99 39 1
0 0 0 0 0 0 0 0 0 0 0 0 0 0 0 0 0 0 0 0 0 139 345 444 201 360 214 318 295 428 66 31 34 29 67 43 23 38 29 11 19 46 7 46 57 132 96 68 0
0 0 0 0 0 0 0 0 0 0 0 0 0 0 0 0 0 0 0 0 0 74 335 365 200 268 163 167 113 78 3 15 25 29 73 20 1 27 34 7 13 9 15 20 53 77 27 30 0
0 0 0 0 0 0 0 0 0 0 0 0 0 0 0 0 0 0 0 0 0 32 276 137 147 293 167 179 14 0 0 3 19 16 8 30 9 27 30 7 32 35 45 38 42 37 10 7 0
0 0 0 0 0 0 0 0 0 0 0 0 0 0 0 0 0 0 0 0 0 57 223 23 104 307 188 90 0 0 10 3 14 28 33 50 23 31 41 44 40 32 22 7 4 9 12 0 4
0 0 0 0 0 0 0 0 0 0 0 0 0 0 0 0 0 0 0 0 30 104 248 25 77 320 206 40 0 1 3 8 12 0 0 3 3 11 27 20 34 32 25 0 5 29 9 11 11
0 0 0 0 0 0 0 0 0 0 0 0 0 0 0 0 0 0 0 0 34 176 339 33 96 307 216 28 0 0 4 2 15 0 5 12 12 4 7 38 20 32 23 2 1 29 17 13 43
0 0 0 0 0 0 0 0 0 0 0 0 0 0 0 0 0 0 0 0 49 236 329 40 53 282 184 10 0 3 1 2 23 0 0 1 10 3 3 15 7 15 15 12 6 5 4 1 42
0 0 0 0 0 0 0 0 0 0 0 0 0 0 0 0 0 0 0 0 92 288 95 45 64 215 123 1 2 1 1 1 13 0 0 0 1 3 3 23 16 36 11 21 21 9 0 2 0
0 0 0 0 0 0 0 0 0 0 0 0 0 0 0 0 0 0 0 0 162 335 98 73 81 227 131 15 0 4 2 9 17 4 0 0 3 7 4 22 22 9 9 10 7 18 9 20 0
0 0 0 0 0 0 0 0 0 0 0 0 0 0 0 0 0 0 0 0 122 351 208 34 274 247 144 33 0 4 2 9 13 0 0 0 0 3 6 19 66 9 10 12 10 6 3 5 1
0 0 0 0 0 0 0 0 0 8 0 0 0 0 0 0 0 0 0 0 87 285 68 81 253 255 131 48 18 4 2 3 8 0 0 4 8 7 0 27 36 27 21 32 26 4 0 1 18
0 0 0 0 0 0 0 0 45 22 18 35 29 0 0 0 2 9 12 6 79 166 14 147 409 227 108 84 39 6 10 4 5 0 0 0 7 0 0 0 28 22 25 13 32 16 3 6 9
0 0 0 0 0 0 0 0 13 19 14 30 0 0 0 0 37 92 64 61 66 15 13 214 150 194 156 146 65 0 11 0 5 12 7 0 0 0 0 2 5 2 4 0 0 0 4 9 10
CIN
0 0 0 0 0 0 0 0 0 0 0 0 0 0 0 0 0 0 -60 -232 -278 -238 -229 -214 -220 -159 -114 -45 -23 -13 -16 -6 -8 -5 -10 -11 -3 0 0 -0 -1 -0 0 0 0 0 0 0 0
0 0 0 0 0 0 0 0 0 0 0 0 0 0 0 0 -97 -151 -190 -242 -251 -234 -233 -187 -186 -139 -70 -16 -0 -14 -15 -3 -2 0 -1 -1 -1 0 0 -2 -4 -2 -0 0 0 0 0 0 -0
0 0 0 0 0 0 0 0 0 0 0 0 0 0 0 0 -226 -203 -262 -249 -257 -250 -233 -167 -195 -143 -78 -1 -0 -4 -21 -15 -10 -36 -27 -46 -33 -27 -19 -15 -6 -2 -0 0 0 0 0 0 -7
0 0 0 0 0 0 0 0 0 0 0 0 0 0 0 -314 -205 -223 -291 -235 -236 -275 -223 -189 -161 -126 -68 -1 -0 -1 -17 -22 -26 -33 -28 -18 -23 -25 -23 -23 -25 -10 -0 0 0 0 0 -0 -4
0 0 0 0 0 0 0 0 0 0 0 0 0 0 0 -255 -336 -307 -259 -255 -215 -276 -231 -137 -120 -88 -50 -6 -2 -2 -8 -21 -29 -11 -18 -18 -13 -14 -16 -21 -22 -13 -9 -1 0 0 0 -4 -16
0 0 0 0 0 0 0 0 0 0 0 0 0 0 0 -370 -280 -276 -252 -223 -201 -188 -192 -72 -84 -68 -41 -10 -8 -9 -19 -35 -45 -34 -37 -30 -24 -19 -11 -13 -16 -17 -16 -8 0 -3 -0 -19 -21
0 0 0 0 0 0 0 0 0 0 0 0 0 0 0 -286 -291 -274 -214 -214 -210 -198 -154 -62 -26 -21 -22 -12 -12 -4 -20 -31 -52 -25 -55 -73 -75 -57 -60 -26 -37 -16 -14 -21 -3 -4 -2 -10 -8
0 0 0 0 0 0 0 0 0 0 0 0 0 0 0 -222 -325 -298 -250 -206 -200 -210 -192 -74 -44 -1 -0 -6 -16 -7 -11 -17 -20 -69 -17 -25 -29 -117 -82 -102 -23 -10 -13 -14 -2 -27 -13 -9 -5
0 0 0 0 0 0 0 0 0 0 0 0 0 0 0 -339 -324 -272 -290 -238 -212 -192 -181 -103 -51 -5 -9 -35 -23 -4 -16 -9 -15 -58 -31 -26 -58 -56 -59 -90 -47 -9 -8 -12 -5 -35 -23 -6 -2
0 0 0 0 0 0 0 0 0 0 0 0 0 -61 -340 -254 -234 -189 -277 -276 -240 -216 -193 -89 -51 -52 -22 -44 -41 -29 0 0 0 -21 -17 -23 -21 -20 -54 -20 -38 -22 -20 -15 -7 -21 -14 -4 -4
0 0 0 0 0 0 0 0 0 0 0 0 0 0 -153 -222 -198 -178 -192 -264 -331 -271 -226 -110 -50 -69 -28 -53 -67 -51 -0 0 0 0 -18 -4 0 -9 -3 0 -2 -10 -19 -5 -0 -19 -9 -0 -19
0 0 0 0 0 0 0 0 0 0 0 0 0 0 0 0 -208 -204 -200 -230 -286 -296 -232 -184 -76 -75 -142 -65 -85 -107 -51 0 0 0 -13 -4 -14 -9 -4 0 -0 -3 -16 0 -5 -2 -7 -6 -15
0 0 0 0 0 0 0 0 0 0 0 0 0 0 0 0 0 -233 -216 -239 -282 -283 -252 -230 -120 -88 -128 -82 -95 -126 -65 -31 0 -1 -0 -0 -2 -1 -6 -1 -4 -14 -16 0 -0 -11 -42 0 0
0 0 0 0 0 0 0 0 0 0 0 0 0 0 0 0 0 -286 -304 -280 -330 -321 -321 -267 -190 -206 -93 -134 -41 -102 -79 -17 0 -10 -5 -6 -6 0 -1 -2 -0 0 -32 -1 -1 -7 -35 0 0
0 0 0 0 0 0 0 0 0 0 0 0 0 0 0 0 0 -378 -340 -281 -295 -329 -281 -312 -313 -200 -129 -32 -50 -65 -77 -120 -97 -21 -2 -35 -8 -1 -4 -1 -1 -4 -34 -31 -3 -2 -3 -3 -1
0 0 0 0 0 0 0 0 0 0 0 0 0 0 0 0 0 0 -386 -373 -350 -337 -176 -315 -249 -196 -162 -53 -48 -63 -44 -45 -92 -8 -46 -16 -0 -1 0 0 -1 -9 -3 -0 -12 -3 -0 -2 -10
0 0 0 0 0 0 0 0 0 0 0 0 0 0 0 0 0 0 0 -221 -433 -404 -361 -316 -214 -243 -211 -112 -77 -23 -46 -130 -56 -38 -26 -23 0 0 0 -0 -0 -3 0 -1 -14 0 -0 -6 -18
0 0 0 0 0 0 0 0 0 0 0 0 0 0 0 0 0 0 0 0 0 -452 -394 -320 -234 -243 -203 -138 -96 -52 -90 -7 -23 -8 -16 0 0 -2 -0 0 -1 0 0 -4 0 0 -1 -1 0
0 0 0 0 0 0 0 0 0 0 0 0 0 0 0 0 0 0 0 0 0 -536 -427 -381 -279 -250 -222 -178 -146 -136 -0 0 -1 0 0 0 -3 0 0 0 0 0 0 -12 0 0 -4 -2 0
0 0 0 0 0 0 0 0 0 0 0 0 0 0 0 0 0 0 0 0 0 -254 -444 -467 -333 -248 -245 -185 -133 0 -0 0 -123 0 0 -0 -0 0 -0 0 -0 -2 -1 -11 -4 -0 0 0 0
0 0 0 0 0 0 0 0 0 0 0 0 0 0 0 0 0 0 0 0 0 -558 -486 -559 -348 -240 -251 -226 0 0 0 -15 0 0 0 -0 -0 -3 -2 -4 -7 -2 -2 -9 -3 -2 -0 0 -42
0 0 0 0 0 0 0 0 0 0 0 0 0 0 0 0 0 0 0 0 -605 -553 -450 -532 -310 -234 -258 -258 0 0 0 0 0 0 0 0 -5 -10 -4 -8 -19 -16 -6 0 -6 -0 -2 -88 -67
0 0 0 0 0 0 0 0 0 0 0 0 0 0 0 0 0 0 0 0 -552 -495 -449 -539 -360 -212 -252 -276 0 0 0 0 0 0 0 0 0 -0 -3 -0 -7 -4 -1 -0 0 -1 -6 -70 -28
0 0 0 0 0 0 0 0 0 0 0 0 0 0 0 0 0 0 0 0 -506 -438 -439 -516 -329 -249 -224 -272 0 0 0 0 0 0 0 0 0 -2 0 0 -10 -10 -2 -4 0 -0 0 0 -26
0 0 0 0 0 0 0 0 0 0 0 0 0 0 0 0 0 0 0 0 -497 -428 -568 -575 -483 -206 -220 -111 0 0 0 0 0 0 0 0 0 0 -21 -1 0 0 -2 -2 -0 -7 0 -0 0
0 0 0 0 0 0 0 0 0 0 0 0 0 0 0 0 0 0 0 0 -470 -417 -558 -591 -396 -226 -250 -99 0 0 0 0 0 0 0 0 0 0 -5 -1 -1 -10 0 -1 0 0 -1 -1 -0
0 0 0 0 0 0 0 0 0 0 -4 0 0 0 0 0 0 0 0 0 -492 -428 -508 -632 -450 -265 -249 -59 0 0 0 0 -0 0 0 0 0 0 0 -1 0 -4 -0 -5 -4 -0 -0 -6 -2
0 0 0 0 0 0 0 0 0 -26 0 0 0 0 0 0 0 0 0 0 -509 -419 -514 -514 -380 -263 -212 -43 -83 0 0 0 0 0 0 0 0 0 0 0 0 -8 0 0 0 0 -0 -1 -0
0 0 0 0 0 0 0 0 -33 -23 -7 0 -2 0 0 0 -23 -144 -244 -299 -437 -398 -523 -389 -257 -239 -157 -35 -76 0 0 -0 0 0 0 0 0 0 0 0 0 -0 0 -5 0 0 -4 -1 -1
0 0 0 0 0 0 0 0 -56 -29 -9 -4 0 -1 0 0 -95 -106 -222 -290 -348 -421 -426 -288 -311 -213 -81 -17 -67 0 0 -0 0 0 -15 0 0 0 0 0 0 -0 -0 0 0 0 -2 -1 0
Wind_Speed
nan nan nan nan nan nan nan nan nan nan nan nan nan nan nan nan nan nan nan 37 35 39 33 33 34 36 34 32 32 31 28 31 33 32 33 35 33 32 30 29 30 31 33 35 34 33 36 34 29
nan nan nan nan nan nan nan nan nan nan nan nan nan nan nan nan nan 30 36 36 35 37 32 33 33 33 36 31 29 28 30 31 32 33 33 34 34 31 29 28 28 30 32 33 33 34 35 33 29
nan nan nan nan nan nan nan nan nan nan nan nan nan nan nan nan 25 29 29 41 36 32 30 31 33 34 36 33 29 26 28 30 33 34 33 33 34 34 31 28 28 31 31 29 32 34 33 30 29
nan nan nan nan nan nan nan nan nan nan nan nan nan nan nan nan 24 27 35 39 36 32 30 31 30 34 37 35 28 26 27 26 27 28 31 33 35 34 28 23 25 30 35 32 28 33 32 31 30
nan nan nan nan nan nan nan nan nan nan nan nan nan nan nan 21 20 28 36 37 35 32 28 29 29 34 38 37 31 30 29 29 27 28 33 35 36 34 33 24 19 28 33 32 34 32 31 32 31
nan nan nan nan nan nan nan nan nan nan nan nan nan nan nan 19 22 26 33 35 33 36 28 29 32 33 38 33 30 31 29 31 34 33 36 39 39 35 31 28 26 21 26 33 36 42 31 32 34
nan nan nan nan nan nan nan nan nan nan nan nan nan nan nan 19 21 26 33 32 33 32 29 28 31 34 36 30 29 32 31 33 35 32 35 38 35 35 45 32 24 31 28 40 42 42 37 35 35
nan nan nan nan nan nan nan nan nan nan nan nan nan nan nan nan 24 24 31 30 33 32 28 26 28 29 36 31 34 33 29 29 30 31 32 32 29 32 36 29 23 26 32 43 42 41 35 35 35
nan nan nan nan nan nan nan nan nan nan nan nan nan nan nan 25 24 24 29 27 30 31 28 26 28 27 30 31 30 33 33 29 27 27 29 28 29 30 27 24 21 22 23 33 32 38 34 34 35
nan nan nan nan nan nan nan nan nan nan nan nan nan nan 30 22 21 18 23 28 29 32 26 26 26 28 28 29 32 29 25 23 24 24 26 21 24 24 23 24 26 22 22 28 25 31 30 27 22
nan nan nan nan nan nan nan nan nan nan nan nan nan nan nan 19 14 15 16 21 30 32 25 25 25 26 27 25 27 26 24 22 21 22 21 21 23 29 27 23 20 22 24 26 26 27 23 nan nan
nan nan nan nan nan nan nan nan nan nan nan nan nan nan nan nan 14 15 16 19 27 32 28 26 24 26 27 25 24 29 26 24 23 22 22 23 28 32 26 22 22 25 27 nan nan 24 nan nan nan
nan nan nan nan nan nan nan nan nan nan nan nan nan nan nan nan nan 13 12 18 24 29 28 27 25 25 28 28 23 25 26 24 25 24 25 26 33 32 28 26 26 30 nan nan nan 24 nan nan nan
nan nan nan nan nan nan nan nan nan nan nan nan nan nan nan nan nan nan 11 17 22 28 30 30 26 27 28 28 25 22 26 25 28 28 29 31 32 33 24 23 31 31 nan nan nan nan nan nan nan
nan nan nan nan nan nan nan nan nan nan nan nan nan nan nan nan nan nan 7 14 19 26 31 30 30 29 30 29 25 22 23 26 nan nan nan nan 23 23 20 26 32 35 nan nan nan nan nan nan nan
nan nan nan nan nan nan nan nan nan nan nan nan nan nan nan nan nan nan nan 14 17 24 34 30 nan 30 32 30 24 23 22 nan nan nan nan 34 nan nan nan nan nan nan nan nan nan nan 28 nan nan
nan nan nan nan nan nan nan nan nan nan nan nan nan nan nan nan nan nan nan nan nan 24 33 32 31 30 33 33 25 23 23 nan nan nan nan nan nan nan nan nan nan nan nan nan nan 27 nan nan nan
nan nan nan nan nan nan nan nan nan nan nan nan nan nan nan nan nan nan nan nan nan 23 31 31 31 31 33 34 26 20 nan nan nan nan nan nan nan nan nan nan nan nan nan nan nan 20 nan nan nan
nan nan nan nan nan nan nan nan nan nan nan nan nan nan nan nan nan nan nan nan nan nan 31 33 34 32 34 32 27 nan nan nan nan nan nan nan nan nan nan nan nan nan nan nan nan nan nan nan nan
nan nan nan nan nan nan nan nan nan nan nan nan nan nan nan nan nan nan nan nan nan nan 27 33 34 35 34 33 nan nan nan nan nan nan nan nan nan nan nan nan nan nan nan nan nan nan nan nan nan
nan nan nan nan nan nan nan nan nan nan nan nan nan nan nan nan nan nan nan nan nan nan 27 nan 36 36 34 nan nan nan nan nan nan nan nan nan nan nan nan nan nan nan nan nan nan nan nan nan nan
nan nan nan nan nan nan nan nan nan nan nan nan nan nan nan nan nan nan nan nan nan 20 27 nan nan 39 36 nan nan nan nan nan nan nan nan nan nan nan nan nan nan nan nan nan nan nan nan nan nan
nan nan nan nan nan nan nan nan nan nan nan nan nan nan nan nan nan nan nan nan nan 24 26 nan nan 37 38 nan nan nan nan nan nan nan nan nan nan nan nan nan nan nan nan nan nan nan nan nan nan
nan nan nan nan nan nan nan nan nan nan nan nan nan nan nan nan nan nan nan nan nan 23 26 nan nan 39 40 nan nan nan nan nan nan nan nan nan nan nan nan nan nan nan nan nan nan nan nan nan nan
nan nan nan nan nan nan nan nan nan nan nan nan nan nan nan nan nan nan nan nan nan 21 nan nan nan 40 41 nan nan nan nan nan nan nan nan nan nan nan nan nan nan nan nan nan nan nan nan nan nan
nan nan nan nan nan nan nan nan nan nan nan nan nan nan nan nan nan nan nan nan 25 20 nan nan nan 42 42 nan nan nan nan nan nan nan nan nan nan nan nan nan nan nan nan nan nan nan nan nan nan
nan nan nan nan nan nan nan nan nan nan nan nan nan nan nan nan nan nan nan nan 26 22 19 nan 34 40 42 nan nan nan nan nan nan nan nan nan nan nan nan nan nan nan nan nan nan nan nan nan nan
nan nan nan nan nan nan nan nan nan nan nan nan nan nan nan nan nan nan nan nan nan 27 nan nan 35 39 40 nan nan nan nan nan nan nan nan nan nan nan nan nan nan nan nan nan nan nan nan nan nan
nan nan nan nan nan nan nan nan nan nan nan nan nan nan nan nan nan nan nan nan nan 34 nan 34 35 40 37 nan nan nan nan nan nan nan nan nan nan nan nan nan nan nan nan nan nan nan nan nan nan
nan nan nan nan nan nan nan nan nan nan nan nan nan nan nan nan nan nan nan nan nan nan nan 36 37 39 36 32 nan nan nan nan nan nan nan nan nan nan nan nan nan nan nan nan nan nan nan nan nan
Wind_Direction
nan nan nan nan nan nan nan nan nan nan nan nan nan nan nan nan nan nan nan 319 310 310 316 322 322 322 323 316 308 300 295 295 300 304 304 301 300 297 294 289 292 289 280 275 272 270 270 267 263
nan nan nan nan nan nan nan nan nan nan nan nan nan nan nan nan nan 316 317 322 307 308 310 320 324 323 323 319 310 307 304 299 299 301 298 299 300 298 292 288 287 285 282 276 272 268 270 267 261
nan nan nan nan nan nan nan nan nan nan nan nan nan nan nan nan 312 321 315 314 299 301 308 322 328 327 326 324 317 314 309 305 301 308 310 309 308 304 299 294 288 285 286 288 280 272 264 264 257
nan nan nan nan nan nan nan nan nan nan nan nan nan nan nan nan 311 322 310 311 304 306 309 325 329 327 326 326 317 306 310 306 301 303 299 298 298 295 291 295 298 288 286 281 279 275 266 254 248
nan nan nan nan nan nan nan nan nan nan nan nan nan nan nan 304 311 314 315 315 315 309 311 324 327 327 329 325 322 311 306 301 300 293 293 292 290 290 283 286 296 293 280 272 269 269 263 255 241
nan nan nan nan nan nan nan nan nan nan nan nan nan nan nan 291 312 318 315 316 314 312 309 315 329 330 330 326 322 317 315 301 293 290 289 289 286 282 275 254 271 283 283 297 274 270 251 253 242
nan nan nan nan nan nan nan nan nan nan nan nan nan nan nan 297 310 307 309 311 311 310 308 319 328 333 327 321 308 308 306 303 299 294 291 289 285 278 283 287 285 291 284 291 292 277 251 246 242
nan nan nan nan nan nan nan nan nan nan nan nan nan nan nan nan 301 295 297 309 311 314 311 320 320 328 335 321 314 313 311 306 298 296 292 289 289 292 289 282 278 282 290 279 288 283 244 241 242
nan nan nan nan nan nan nan nan nan nan nan nan nan nan nan 276 291 295 296 305 312 313 310 317 318 324 332 315 317 322 325 319 303 295 289 291 295 291 287 277 275 301 292 293 289 273 253 237 237
nan nan nan nan nan nan nan nan nan nan nan nan nan nan 265 290 300 307 310 318 315 316 313 316 316 329 335 323 313 317 318 314 312 312 312 306 310 305 282 274 276 281 291 279 261 251 236 243 230
nan nan nan nan nan nan nan nan nan nan nan nan nan nan nan 281 297 315 318 320 319 316 311 312 316 323 328 327 300 300 308 307 309 315 312 306 303 302 286 263 253 248 268 235 232 214 216 nan nan
nan nan nan nan nan nan nan nan nan nan nan nan nan nan nan nan 305 323 325 319 310 309 318 316 321 317 325 323 305 296 306 310 310 315 321 312 300 308 282 251 244 243 229 nan nan 215 nan nan nan
nan nan nan nan nan nan nan nan nan nan nan nan nan nan nan nan nan 314 312 302 303 307 312 315 323 321 317 326 304 292 302 309 317 313 318 312 308 309 275 248 236 241 nan nan nan 222 nan nan nan
nan nan nan nan nan nan nan nan nan nan nan nan nan nan nan nan nan nan 289 302 306 303 309 312 322 320 317 320 310 296 292 308 311 314 318 319 306 307 257 252 241 240 nan nan nan nan nan nan nan
nan nan nan nan nan nan nan nan nan nan nan nan nan nan nan nan nan nan 283 289 300 299 300 310 319 317 319 321 307 292 294 306 nan nan nan nan 305 299 245 253 242 230 nan nan nan nan nan nan nan
nan nan nan nan nan nan nan nan nan nan nan nan nan nan nan nan nan nan nan 284 289 294 301 311 nan 320 317 317 302 289 287 nan nan nan nan 316 nan nan nan nan nan nan nan nan nan nan 243 nan nan
nan nan nan nan nan nan nan nan nan nan nan nan nan nan nan nan nan nan nan nan nan 296 302 313 314 316 311 312 299 295 290 nan nan nan nan nan nan nan nan nan nan nan nan nan nan 231 nan nan nan
nan nan nan nan nan nan nan nan nan nan nan nan nan nan nan nan nan nan nan nan nan 291 299 308 305 306 309 305 295 293 nan nan nan nan nan nan nan nan nan nan nan nan nan nan nan 236 nan nan nan
nan nan nan nan nan nan nan nan nan nan nan nan nan nan nan nan nan nan nan nan nan nan 297 306 298 304 299 298 296 nan nan nan nan nan nan nan nan nan nan nan nan nan nan nan nan nan nan nan nan
nan nan nan nan nan nan nan nan nan nan nan nan nan nan nan nan nan nan nan nan nan nan 292 298 296 299 298 300 nan nan nan nan nan nan nan nan nan nan nan nan nan nan nan nan nan nan nan nan nan
nan nan nan nan nan nan nan nan nan nan nan nan nan nan nan nan nan nan nan nan nan nan 298 nan 296 297 296 nan nan nan nan nan nan nan nan nan nan nan nan nan nan nan nan nan nan nan nan nan nan
nan nan nan nan nan nan nan nan nan nan nan nan nan nan nan nan nan nan nan nan nan 280 287 nan nan 295 294 nan nan nan nan nan nan nan nan nan nan nan nan nan nan nan nan nan nan nan nan nan nan
nan nan nan nan nan nan nan nan nan nan nan nan nan nan nan nan nan nan nan nan nan 267 283 nan nan 294 292 nan nan nan nan nan nan nan nan nan nan nan nan nan nan nan nan nan nan nan nan nan nan
nan nan nan nan nan nan nan nan nan nan nan nan nan nan nan nan nan nan nan nan nan 251 270 nan nan 287 293 nan nan nan nan nan nan nan nan nan nan nan nan nan nan nan nan nan nan nan nan nan nan
nan nan nan nan nan nan nan nan nan nan nan nan nan nan nan nan nan nan nan nan nan 254 nan nan nan 288 286 nan nan nan nan nan nan nan nan nan nan nan nan nan nan nan nan nan nan nan nan nan nan
nan nan nan nan nan nan nan nan nan nan nan nan nan nan nan nan nan nan nan nan 236 242 nan nan nan 280 282 nan nan nan nan nan nan nan nan nan nan nan nan nan nan nan nan nan nan nan nan nan nan
nan nan nan nan nan nan nan nan nan nan nan nan nan nan nan nan nan nan nan nan 230 236 256 nan 270 271 275 nan nan nan nan nan nan nan nan nan nan nan nan nan nan nan nan nan nan nan nan nan nan
nan nan nan nan nan nan nan nan nan nan nan nan nan nan nan nan nan nan nan nan nan 231 nan nan 250 261 265 nan nan nan nan nan nan nan nan nan nan nan nan nan nan nan nan nan nan nan nan nan nan
nan nan nan nan nan nan nan nan nan nan nan nan nan nan nan nan nan nan nan nan nan 224 nan 235 246 262 267 nan nan nan nan nan nan nan nan nan nan nan nan nan nan nan nan nan nan nan nan nan nan
nan nan nan nan nan nan nan nan nan nan nan nan nan nan nan nan nan nan nan nan nan nan nan 224 241 255 261 261 nan nan nan nan nan nan nan nan nan nan nan nan nan nan nan nan nan nan nan nan nan